Theta_e
320 320 320 320 321 321 321 321 321 322 322 322 322 322 323 322 322 322 322 322 322 323 322 322 323 323 324 323 324 324 322 318 313 312 309 313 322 330 332 333 338 333 324 314 313 312 309 310 309 311 313 313 311 310 311 312 310 311 303 301 299 300 299 303 301 302 303 300 303 303 302 302 301 303 303 302 302 303 304 303 306 307 306 308 310 309 309 310
320 320 320 320 320 321 321 321 321 322 322 322 322 322 322 322 322 322 322 322 322 322 322 323 323 324 323 323 323 322 321 317 313 312 311 325 332 328 336 338 337 330 322 313 311 310 308 307 309 310 311 308 311 309 309 309 312 306 304 301 298 302 302 305 304 305 302 302 304 303 300 301 302 302 304 301 304 304 303 305 306 304 307 309 309 310 308 310
320 320 320 320 320 321 321 321 321 321 321 321 321 322 322 321 322 322 322 322 322 322 322 322 323 323 323 323 322 321 318 317 307 306 310 332 334 334 339 337 333 330 316 313 313 312 309 309 310 310 309 307 308 307 309 308 308 308 304 300 301 305 304 303 304 303 304 304 303 303 303 300 303 302 303 301 302 303 302 303 306 305 306 308 309 310 309 309
319 320 320 319 320 321 321 321 321 321 321 321 321 321 322 322 322 322 322 322 322 322 322 323 322 323 322 322 323 319 318 313 305 308 314 323 336 339 340 336 334 325 316 314 312 311 310 311 309 309 307 305 305 309 305 308 305 307 303 301 303 306 303 304 304 304 305 302 302 302 303 300 304 304 302 302 301 303 305 307 306 306 307 308 310 310 310 308
319 319 319 319 319 320 321 321 321 321 321 321 321 321 322 322 322 321 322 322 322 322 323 322 322 322 322 323 319 316 313 304 305 310 320 336 339 338 338 334 328 317 315 310 311 310 310 309 308 307 306 303 304 306 305 307 308 306 303 306 306 302 302 306 306 305 303 300 300 301 299 303 302 300 300 302 300 301 305 308 308 308 309 309 309 309 308 307
318 319 319 319 319 320 321 320 320 321 321 321 321 321 321 321 322 321 321 322 322 322 323 323 322 322 322 321 321 314 309 296 309 314 329 330 338 340 336 332 323 313 312 311 310 309 308 307 307 304 303 303 303 301 304 306 307 300 305 305 306 306 303 306 305 302 301 301 301 301 304 303 301 303 304 303 302 305 309 310 310 310 310 310 308 307 305 307
318 319 319 319 319 319 319 320 320 320 321 320 320 321 321 321 321 321 321 321 322 322 322 322 322 322 322 319 317 309 307 307 311 321 335 336 339 339 334 327 321 314 313 309 309 308 308 306 306 304 303 302 303 302 303 304 304 302 301 304 304 306 304 307 305 300 301 302 302 305 305 301 303 300 305 303 305 307 309 310 309 310 310 309 306 307 306 307
319 319 319 319 319 319 319 319 320 320 320 320 320 321 321 321 321 321 321 321 321 322 322 321 322 321 321 314 313 306 306 306 309 320 333 337 337 331 321 316 313 315 312 311 309 308 307 305 303 304 302 301 302 302 302 301 303 301 301 304 304 303 304 305 304 303 303 303 305 304 301 302 304 303 304 303 305 307 308 309 309 309 308 308 306 306 306 306
320 320 319 320 321 319 318 319 320 321 320 320 321 321 321 321 321 321 321 321 322 321 321 322 321 321 318 311 306 302 301 318 308 315 335 330 322 314 316 312 312 312 311 310 310 310 308 305 305 305 301 301 303 301 300 300 299 302 302 304 303 302 304 304 302 301 302 303 303 300 300 303 304 303 300 303 305 307 308 308 308 308 306 306 306 306 306 306
320 319 319 320 320 318 318 319 320 320 321 321 321 321 321 321 321 321 320 321 320 321 321 321 321 320 309 309 306 298 310 307 319 327 323 320 314 313 314 317 311 311 309 307 307 308 307 308 306 307 306 303 302 301 301 300 299 301 302 301 301 302 302 302 300 301 302 302 301 299 300 301 302 300 298 305 306 307 306 306 306 305 304 305 306 306 306 305
319 318 319 320 319 318 318 319 319 320 320 321 321 321 321 321 321 320 320 320 321 320 320 320 319 312 310 306 302 299 312 318 321 322 318 317 315 314 316 314 312 311 311 307 308 310 309 309 309 306 304 302 300 300 299 300 301 300 298 300 300 301 301 300 299 299 300 299 300 300 299 301 301 298 298 303 305 304 303 304 305 305 305 306 306 306 307 306
319 319 319 320 318 318 318 319 319 320 320 321 321 321 321 321 320 320 320 320 321 321 320 320 319 315 305 304 302 304 311 316 319 319 317 318 315 313 314 312 311 316 312 308 308 312 309 310 309 305 299 303 299 297 298 300 300 299 298 296 299 300 298 301 299 301 299 298 297 301 297 296 298 296 302 304 306 303 302 302 303 304 305 306 306 305 305 306
319 320 319 318 318 318 318 319 319 319 320 320 320 320 321 320 320 320 320 320 320 320 321 321 318 314 307 302 306 311 310 317 314 311 310 313 310 309 310 310 309 307 311 310 310 313 308 308 308 304 303 302 299 297 298 300 298 298 298 296 295 297 297 300 301 297 296 298 298 299 291 296 299 302 303 305 305 303 301 301 303 304 304 305 305 304 305 306
321 320 319 318 319 318 319 319 319 320 320 320 320 320 320 320 319 319 320 320 320 320 320 319 318 312 303 304 304 305 310 313 312 312 310 311 312 311 312 311 310 308 310 308 307 306 306 305 308 304 302 300 298 302 299 298 298 296 296 295 294 293 294 298 298 295 296 297 298 298 291 295 299 302 305 304 301 300 299 301 302 303 303 304 304 305 305 306
321 320 319 318 319 319 319 319 319 320 320 320 320 320 320 319 319 320 319 319 319 320 320 319 317 306 302 306 304 306 314 311 310 313 313 309 310 309 307 309 309 308 308 308 307 303 306 308 305 301 300 301 301 298 296 296 297 297 293 292 295 292 295 299 298 296 295 295 297 297 292 294 298 301 303 303 300 298 299 301 302 302 303 303 304 304 304 305
321 320 320 320 320 319 319 319 319 319 320 320 320 319 319 319 318 319 320 320 319 320 319 313 310 303 301 301 307 317 308 306 306 308 310 311 314 308 311 308 308 307 307 304 305 305 305 306 301 300 300 300 298 296 295 295 296 295 293 292 293 294 294 295 298 298 298 296 295 296 293 295 297 301 303 302 299 300 300 300 301 302 303 303 303 304 304 305
321 320 320 320 320 320 319 319 319 319 319 319 319 320 317 317 317 318 318 318 318 319 316 304 309 305 300 307 306 302 302 307 306 310 309 309 309 309 308 307 305 304 306 304 305 307 304 302 299 300 300 298 298 297 292 292 292 295 295 292 295 292 293 292 298 300 297 296 294 295 292 294 297 299 301 302 302 301 299 300 301 301 302 302 303 303 304 304
321 321 320 320 320 320 320 319 319 319 319 319 319 317 314 318 317 316 316 316 316 315 313 310 309 305 302 305 301 302 304 303 309 306 307 306 310 308 307 304 302 305 305 303 304 302 302 299 300 298 299 297 295 296 291 289 294 295 295 293 293 293 292 292 292 295 296 296 293 294 293 294 296 298 299 301 301 300 299 300 300 300 301 302 302 303 303 304
322 321 321 321 321 320 320 320 320 320 319 319 318 314 320 318 314 314 310 308 308 303 301 301 301 299 300 301 303 302 307 305 308 308 305 307 306 304 304 305 306 303 301 300 299 300 301 300 300 297 294 295 294 295 294 295 297 295 294 293 292 290 292 292 296 298 295 294 293 294 292 294 296 297 299 300 301 300 300 301 300 301 301 302 302 303 304 305
322 322 321 321 320 320 320 321 321 320 319 317 315 308 313 310 307 300 305 306 303 304 303 303 305 303 303 304 304 305 307 307 304 305 307 307 305 305 303 304 304 302 300 298 298 299 302 296 294 294 297 299 298 298 298 298 294 293 293 292 291 291 292 295 296 298 296 293 293 294 294 294 295 297 298 299 301 300 300 300 300 301 302 303 303 303 304 304
323 323 322 322 321 320 321 321 321 320 319 316 310 309 307 301 302 303 301 305 308 306 303 304 304 304 305 304 305 304 304 301 305 306 307 308 305 305 301 302 300 297 298 298 299 298 297 295 295 298 299 298 297 298 297 296 295 293 293 292 291 293 291 295 295 297 295 292 292 294 293 294 295 297 298 300 299 298 299 300 301 301 302 303 303 303 304 305
321 322 322 321 321 321 321 321 321 319 316 311 310 307 301 301 302 303 303 302 307 306 303 304 302 301 305 304 305 305 305 302 303 304 308 307 303 301 300 300 297 298 296 297 296 294 294 292 297 299 298 295 295 295 295 294 293 294 292 292 291 292 294 296 296 295 293 292 292 294 291 292 295 297 299 299 299 300 301 301 301 301 301 302 303 304 304 304
321 321 321 322 321 321 321 320 320 317 314 314 309 302 303 305 305 306 305 301 298 304 300 302 300 300 301 303 303 304 301 299 299 303 305 307 300 300 299 297 296 297 294 297 295 294 291 294 298 300 297 295 294 294 293 293 293 292 292 290 289 294 291 290 294 292 293 292 291 292 290 293 297 299 299 300 299 300 302 301 301 301 301 301 302 302 302 302
321 321 321 321 321 322 321 321 320 317 311 308 309 307 304 306 307 306 303 300 299 303 303 302 302 301 301 301 304 304 300 300 300 300 305 304 301 301 299 299 296 295 295 295 296 296 295 298 295 296 296 295 294 295 293 292 292 295 293 292 292 292 293 292 292 293 294 295 292 292 293 295 297 295 296 299 299 298 299 300 301 302 303 303 304 305 303 300
320 320 320 321 320 320 319 320 316 313 309 308 310 308 303 304 307 307 303 301 298 299 303 300 301 303 302 307 304 301 300 299 299 299 303 303 299 298 298 298 298 294 296 297 295 295 295 298 295 295 293 293 293 292 294 294 291 293 295 293 293 294 292 293 294 290 290 291 291 291 288 291 294 296 297 300 301 301 301 301 301 301 301 301 301 300 301 300
320 320 320 319 319 320 320 317 313 312 311 313 311 306 301 302 306 306 301 297 294 302 302 299 303 299 305 299 302 300 300 298 298 299 302 304 304 301 297 297 297 295 295 294 294 296 296 294 295 294 294 293 293 293 297 295 292 291 293 295 294 293 293 292 291 290 287 286 291 292 287 286 294 294 296 298 299 300 302 301 301 300 299 300 299 299 298 297
320 319 319 319 319 320 317 314 312 312 314 312 308 305 303 305 306 305 298 295 292 302 299 299 300 299 304 298 298 300 294 297 300 300 300 303 301 304 297 296 294 293 294 296 293 292 292 291 292 294 293 293 292 291 295 294 292 290 294 291 292 291 291 292 291 290 289 292 292 289 292 288 288 293 296 298 298 298 298 300 301 299 298 298 297 296 296 296
317 319 318 320 320 319 319 313 311 312 315 311 308 306 305 305 304 303 298 287 287 303 297 298 299 305 303 298 299 296 293 292 296 297 299 301 300 298 297 295 295 295 292 293 289 295 293 291 292 291 292 292 292 295 296 295 293 293 291 292 293 291 292 291 291 290 290 287 287 289 290 286 288 292 296 295 293 295 297 298 299 298 298 296 295 295 294 294
314 316 317 318 320 319 319 316 313 314 308 305 306 306 305 305 302 301 295 285 300 298 305 295 304 299 298 299 297 294 295 295 293 295 300 300 301 298 296 296 294 294 292 294 293 294 291 293 295 296 293 292 295 291 294 295 292 291 290 292 291 291 291 291 290 290 289 286 284 287 290 286 288 292 293 293 293 295 296 298 298 298 295 294 293 294 294 294
312 313 316 318 318 318 316 315 315 311 307 307 306 305 304 302 302 296 289 282 300 294 298 299 296 294 296 295 294 295 294 294 294 297 299 298 299 300 293 294 294 293 293 292 292 294 291 292 292 293 293 295 293 289 291 294 290 291 293 294 292 291 291 290 290 289 287 283 286 290 290 290 284 292 294 293 294 296 296 297 299 297 295 293 293 292 292 292
311 311 314 317 317 318 317 312 316 308 308 307 307 309 311 308 298 291 282 293 299 298 295 296 294 296 295 294 294 293 293 292 295 296 295 297 296 297 295 293 296 294 289 291 290 294 292 291 293 295 293 291 294 291 290 290 291 293 292 290 290 289 288 288 287 288 284 283 288 290 290 290 283 290 293 294 293 293 295 295 297 293 292 292 292 292 291 291
310 311 311 318 318 319 315 313 312 309 308 309 311 311 309 293 299 285 286 303 290 297 296 294 292 293 292 291 293 292 294 293 292 294 294 294 295 294 294 293 294 289 289 289 290 290 289 291 294 294 295 293 294 292 290 291 292 292 291 289 285 285 286 283 284 281 283 283 285 286 289 285 286 291 294 296 297 296 296 294 294 292 291 291 291 291 291 291
309 310 311 315 316 317 317 310 308 308 309 312 314 312 300 290 281 292 292 297 290 298 295 296 293 293 293 293 294 291 292 294 293 292 293 292 292 295 296 293 295 292 288 290 288 289 293 290 290 293 294 294 294 289 290 288 290 290 288 287 285 282 282 279 283 282 282 286 286 286 290 285 291 293 297 297 296 293 292 292 292 291 290 290 290 290 290 290
308 309 313 315 318 319 313 308 308 309 311 314 312 303 296 285 284 297 295 297 296 296 296 295 292 292 292 294 295 293 294 294 292 292 293 292 291 292 294 293 291 292 292 289 287 289 285 288 291 290 291 296 293 294 295 295 290 290 294 291 288 288 283 279 282 280 282 285 284 287 284 283 284 291 294 293 292 292 291 291 291 291 291 290 290 289 289 288
308 309 311 315 316 318 309 310 309 311 314 312 305 297 287 286 292 291 293 297 299 297 297 295 295 294 294 293 292 292 294 294 292 292 292 291 291 291 293 294 291 294 293 287 292 287 288 289 295 294 293 293 293 297 295 294 292 291 291 292 288 287 292 284 287 286 285 286 284 282 284 290 290 297 296 291 292 291 290 290 290 289 289 289 288 288 287 287
308 311 314 314 314 316 311 310 310 313 314 307 298 291 288 292 289 296 293 299 297 296 295 296 297 294 294 295 294 294 295 294 293 292 292 291 293 292 294 293 291 293 292 288 294 289 289 287 292 293 290 292 294 292 293 295 287 289 289 286 290 295 292 287 287 287 285 284 282 290 287 291 295 296 298 291 290 288 289 288 288 287 288 287 286 286 286 287
304 309 307 312 314 315 312 310 311 313 312 304 296 288 295 295 299 297 302 297 297 297 297 291 294 293 293 291 294 292 294 294 293 292 292 293 291 293 291 294 294 294 296 295 290 295 287 290 293 293 292 292 289 292 293 292 295 290 285 291 294 295 293 288 281 284 283 280 282 288 285 287 288 284 294 290 289 288 287 286 286 286 286 286 285 285 285 286
304 305 308 310 314 314 312 311 312 310 306 300 292 293 299 294 301 299 300 297 297 298 297 294 293 297 292 294 293 293 295 293 293 292 291 293 291 296 291 293 294 293 294 296 292 291 292 285 292 291 293 292 291 293 292 294 294 292 291 295 288 285 284 288 283 275 277 277 280 284 287 287 289 288 293 292 288 287 286 285 285 284 284 284 285 284 285 285
303 306 301 308 314 314 312 313 312 307 300 294 292 291 298 297 301 299 298 299 299 298 294 295 292 298 297 293 294 292 295 291 293 291 289 293 289 295 294 296 293 290 293 295 294 293 290 284 287 296 293 292 291 292 286 290 293 293 294 294 294 289 287 285 285 284 284 278 279 280 285 282 291 291 293 292 288 288 286 285 284 283 283 283 284 284 284 284
302 298 298 309 312 314 313 313 306 303 298 291 294 294 299 295 299 298 297 299 299 296 296 295 296 293 296 294 295 293 294 293 293 293 292 295 292 301 296 298 296 292 291 296 294 295 288 294 283 293 291 293 287 291 289 292 288 288 288 287 289 288 290 288 287 285 282 280 280 279 278 284 291 291 290 289 288 288 287 285 284 283 283 283 284 284 284 284
305 301 300 310 312 314 312 308 300 296 295 298 299 297 298 296 298 298 299 299 301 301 296 295 295 293 294 292 293 295 293 292 294 292 293 294 293 289 299 296 297 294 293 294 293 293 289 290 284 288 289 289 290 296 294 294 294 292 291 288 290 287 285 281 279 290 285 283 279 279 277 285 291 288 289 288 288 287 286 285 284 283 283 283 284 284 284 284
299 292 297 310 313 313 307 297 298 300 296 294 294 298 296 302 298 299 298 298 299 299 301 298 296 295 294 293 295 293 294 292 293 292 293 291 296 293 296 296 297 298 296 291 293 296 294 291 288 285 287 288 292 296 296 294 293 292 292 290 293 291 290 284 278 282 286 286 286 284 281 283 287 287 288 288 287 286 286 285 284 284 284 284 284 284 285 285
298 294 306 308 312 311 303 296 299 296 295 298 302 299 300 298 297 297 296 297 296 300 297 296 296 295 296 295 295 294 294 290 293 291 293 293 295 297 296 295 297 297 297 294 295 294 292 285 284 286 290 293 295 296 296 292 293 290 291 292 290 286 289 286 285 285 282 284 283 283 279 282 285 288 286 286 285 284 285 285 284 284 284 284 284 284 284 284
298 299 302 310 311 308 300 289 290 292 295 298 298 298 301 299 297 295 296 297 297 297 295 295 295 297 295 297 294 292 295 286 291 292 291 293 292 293 292 294 296 295 296 293 291 294 286 287 287 282 282 284 287 291 291 291 291 289 289 291 291 290 290 288 287 284 279 281 283 281 276 283 287 286 285 283 284 283 283 284 284 282 283 283 282 282 283 284
297 297 299 302 307 305 295 298 295 294 294 293 294 293 294 296 299 298 297 296 299 297 295 294 296 298 295 295 293 293 294 292 287 294 293 292 293 293 292 294 296 295 294 294 294 294 288 287 286 278 276 274 274 277 280 283 286 288 289 289 291 289 288 286 282 284 279 283 284 280 280 287 284 283 282 283 284 283 283 283 283 284 283 282 282 283 283 283
292 285 293 297 299 299 299 301 299 295 293 292 291 292 294 292 295 296 299 296 298 298 298 297 295 295 294 292 291 292 291 295 290 288 291 290 292 294 292 290 292 295 293 293 287 290 286 287 287 284 281 279 282 285 290 289 287 284 286 287 287 288 288 285 284 280 277 281 280 282 283 284 284 281 281 283 284 283 282 282 281 282 283 283 283 283 283 282
293 286 289 286 294 294 292 297 295 296 291 295 287 292 290 292 293 293 299 292 296 296 296 296 294 291 290 291 289 290 292 290 293 291 289 289 292 295 291 291 290 290 292 292 291 290 286 284 286 286 285 285 287 287 288 288 285 286 285 285 288 287 287 285 282 278 285 280 275 283 285 283 285 289 286 282 282 283 283 282 282 282 282 283 283 282 283 282
287 288 290 292 289 287 289 289 293 292 295 295 290 293 290 290 290 288 293 294 293 295 292 293 293 294 293 291 291 286 289 289 290 287 291 290 290 290 291 291 291 289 289 292 292 290 286 282 285 286 284 287 287 287 287 287 286 286 285 285 284 286 285 282 282 285 284 279 277 283 285 283 285 288 289 286 284 284 283 282 282 283 283 284 284 282 281 281
288 289 288 290 287 287 289 289 291 292 292 294 291 291 289 289 288 291 290 290 291 290 293 286 289 292 293 293 291 287 288 283 283 288 287 286 286 287 286 289 291 287 290 289 289 290 287 283 286 286 284 285 285 286 287 285 285 284 284 285 285 285 284 284 284 285 284 283 284 284 284 284 286 288 288 284 282 281 282 282 282 282 282 283 283 282 281 281
286 286 285 287 286 285 285 287 288 290 288 292 288 289 289 288 287 290 290 289 285 288 293 288 290 287 287 286 289 286 289 289 287 284 287 284 284 288 285 286 285 288 287 287 288 289 287 281 285 283 281 280 283 285 285 284 283 281 283 283 283 283 283 284 284 284 284 282 283 282 282 281 286 284 284 283 283 282 282 280 280 280 281 282 283 283 282 281
289 290 291 287 285 283 283 284 286 287 286 288 286 289 289 289 288 290 288 290 288 286 288 286 286 284 284 285 287 288 288 285 284 284 284 285 283 287 283 283 285 281 284 283 285 284 286 280 285 282 278 277 281 281 281 282 281 279 279 280 281 280 279 281 280 283 281 279 281 281 279 280 283 281 283 283 282 281 279 280 280 281 281 281 282 282 282 282
288 289 289 289 284 287 282 283 283 285 281 287 288 288 287 287 286 289 285 288 286 288 287 286 286 286 285 286 286 288 287 285 286 286 286 286 287 285 286 285 285 283 282 282 284 281 283 281 279 279 275 275 280 281 279 278 277 274 276 279 281 282 282 283 283 284 283 283 279 277 278 280 279 281 279 281 280 280 280 280 280 281 281 281 282 282 283 283
Wind_Speed
11 12 11 11 11 12 11 12 11 12 12 11 11 11 11 11 11 11 11 11 10 11 11 11 11 12 12 12 12 11 11 4 2 3 3 4 3 7 7 3 14 14 9 9 9 9 6 5 6 1 4 4 2 3 2 0 1 3 4 4 6 6 6 4 8 7 2 5 6 3 4 4 9 2 1 2 8 11 13 11 9 10 11 13 8 2 3 2
11 11 11 11 11 11 11 12 12 12 12 11 11 11 11 11 11 11 11 11 11 11 11 11 11 11 12 12 11 11 8 2 4 3 12 6 5 8 4 11 13 14 11 9 10 7 8 6 5 5 6 4 1 0 0 3 2 5 2 4 8 4 3 5 7 7 4 8 5 4 4 3 9 3 2 7 11 10 13 15 11 13 17 16 15 13 6 5
10 10 10 10 11 11 11 12 12 12 12 12 11 11 11 11 11 11 11 11 11 11 10 11 11 12 12 12 12 8 5 4 3 6 1 5 5 8 7 12 15 12 12 8 7 8 6 7 8 7 3 3 1 2 3 2 4 4 4 7 9 6 3 5 4 8 9 10 10 10 3 4 4 2 1 7 13 11 16 15 9 10 13 12 14 12 11 8
9 9 10 10 10 10 11 12 12 12 12 12 12 12 11 11 12 11 11 11 10 10 10 10 11 11 11 12 11 6 3 5 5 1 1 2 6 8 10 12 12 11 2 3 5 5 4 7 6 6 3 6 2 2 5 4 5 3 5 8 5 2 5 8 11 11 9 1 8 7 5 8 8 6 6 6 8 16 16 15 15 15 16 14 8 8 5 7
9 9 9 9 10 10 11 11 11 12 12 12 12 12 12 12 12 11 11 10 10 10 10 10 10 10 10 10 9 1 4 7 1 2 4 4 7 7 10 13 11 6 4 7 8 6 7 8 7 2 2 5 2 2 7 5 2 3 9 9 8 4 6 7 7 5 4 1 5 6 7 11 3 4 10 11 11 13 12 5 5 11 14 14 13 10 4 7
8 8 9 9 10 11 11 11 11 11 12 12 12 12 12 12 12 12 11 11 11 10 10 9 9 9 9 7 2 0 2 6 1 0 4 4 6 7 10 10 7 7 11 10 7 7 8 5 7 5 5 5 7 8 3 4 6 8 10 12 11 7 10 2 3 2 4 4 5 8 6 4 7 13 11 14 16 19 19 17 17 15 14 13 8 7 9 10
8 8 8 9 9 10 10 10 11 11 12 12 12 12 13 13 12 12 12 12 11 11 10 9 8 8 9 2 2 2 2 8 1 2 4 5 5 8 9 8 7 9 10 8 8 9 7 7 8 5 4 4 6 8 3 5 3 7 11 2 8 7 12 8 6 5 5 5 10 8 8 12 11 15 4 15 16 21 22 21 20 18 17 10 12 15 14 15
4 7 8 8 9 10 10 10 11 11 12 12 12 13 13 13 14 14 13 13 12 11 10 9 7 7 6 2 1 1 3 8 2 4 1 6 7 9 9 5 6 6 10 11 11 9 8 9 10 4 6 8 2 8 3 4 6 9 11 8 8 3 10 8 5 6 8 10 10 8 12 20 15 15 13 18 12 17 22 21 18 16 15 14 13 16 16 15
2 7 8 6 6 9 9 10 10 11 11 12 13 13 14 14 14 14 14 14 13 12 9 8 7 5 1 3 3 3 8 3 0 1 5 7 7 8 10 8 4 11 6 2 5 6 8 8 5 9 6 8 4 8 4 5 9 12 15 5 6 7 9 6 4 7 9 6 5 7 17 21 14 8 18 23 17 20 20 19 17 13 12 13 13 14 13 13
6 7 7 8 8 9 9 10 11 11 12 12 12 13 14 15 15 15 16 14 13 12 9 6 5 4 1 3 4 6 1 4 3 4 5 7 8 8 1 2 9 8 6 4 2 7 11 5 9 4 3 3 4 5 3 9 2 2 4 6 10 12 10 6 9 10 9 8 6 11 17 19 0 2 13 3 5 6 7 11 12 9 12 14 12 10 11 12
5 6 7 8 9 10 10 10 11 12 12 13 13 14 14 15 15 16 16 16 13 11 9 6 2 2 3 3 5 10 4 4 2 4 6 7 10 9 6 5 7 8 4 3 7 9 1 3 4 5 0 4 4 4 5 2 5 3 5 10 14 13 10 9 9 13 5 9 10 12 17 18 6 1 17 14 2 2 6 13 15 13 13 12 13 12 10 10
7 7 8 9 9 10 10 11 12 13 14 14 14 14 15 16 16 16 15 13 11 9 6 6 2 2 2 4 8 8 2 3 5 5 5 6 5 2 1 1 5 5 8 7 7 2 1 2 7 7 3 5 5 2 3 2 4 3 5 9 12 12 14 14 12 10 9 6 5 7 10 16 10 11 18 15 13 1 6 12 14 15 14 12 12 11 10 11
4 6 8 9 9 10 11 12 13 14 15 15 15 15 15 16 17 14 12 10 5 3 1 5 5 2 1 8 7 3 2 5 7 7 6 5 6 4 3 2 2 2 3 3 2 3 3 5 7 9 2 4 0 3 3 2 1 3 4 5 13 12 13 7 6 4 4 2 7 7 8 9 12 13 15 15 9 9 10 13 12 11 12 11 10 10 11 12
3 4 6 9 9 10 12 13 14 15 16 16 16 16 16 17 13 10 8 6 4 3 5 8 1 2 2 8 2 1 3 3 7 7 5 3 6 3 5 4 4 3 2 3 3 1 5 1 1 2 2 5 3 3 4 1 3 7 2 1 9 9 9 4 2 5 4 4 10 5 10 11 16 17 11 2 4 6 12 14 12 12 14 15 14 13 15 17
2 2 3 8 7 10 11 13 15 17 17 17 17 17 17 14 8 7 5 3 2 6 9 7 1 3 4 6 6 2 4 1 6 3 4 6 7 5 3 5 6 5 4 4 3 2 3 5 3 3 4 3 1 4 6 3 3 3 5 6 4 7 10 5 6 7 11 3 7 7 10 11 15 18 13 1 2 2 10 18 20 16 16 18 17 16 15 16
5 3 1 4 4 10 10 11 14 17 18 18 18 17 12 5 4 5 7 4 6 9 5 3 2 2 4 8 2 7 2 3 2 3 0 4 5 3 6 6 5 4 2 5 2 3 2 4 2 1 2 3 5 4 4 6 7 4 7 10 11 7 9 11 5 3 4 4 6 12 10 11 13 13 14 1 3 7 13 20 23 21 21 20 17 16 14 13
5 5 4 3 1 7 10 12 13 16 17 18 18 13 6 4 2 5 5 6 5 3 2 0 2 2 4 1 5 3 1 2 0 2 1 2 2 9 10 7 4 7 7 6 2 4 3 3 1 2 2 5 0 3 4 7 9 8 6 9 4 10 10 10 9 7 5 7 5 10 10 13 17 20 22 23 19 17 19 23 21 18 17 20 18 17 15 13
6 6 4 3 2 3 7 11 13 14 17 18 16 10 2 3 4 2 5 4 1 1 0 1 2 1 8 4 7 1 1 2 2 2 3 2 1 7 4 4 2 8 8 7 1 5 1 3 1 5 2 5 4 6 6 10 8 10 9 7 8 7 9 14 11 1 3 6 7 8 15 16 17 19 22 23 22 19 18 19 16 18 20 20 17 14 15 14
6 6 3 3 2 4 4 7 12 13 16 20 9 2 6 3 2 1 1 0 2 2 3 4 4 6 4 0 3 3 1 2 2 1 4 6 2 2 5 4 8 11 6 5 4 4 2 3 1 2 9 9 10 11 11 15 13 12 7 11 10 12 11 11 13 11 3 12 13 14 14 14 13 16 19 20 21 19 17 13 16 18 19 16 11 10 11 12
5 5 5 3 3 3 6 7 12 14 15 13 4 1 3 1 1 2 1 2 4 6 4 1 6 5 9 4 2 2 1 1 2 3 2 2 6 7 5 4 3 1 6 6 5 4 1 7 6 8 11 10 11 15 16 10 3 3 4 6 12 13 14 16 16 12 3 7 10 14 15 14 13 15 20 24 21 18 15 16 17 17 15 8 6 9 11 12
4 5 5 5 4 4 6 7 9 14 13 6 5 2 3 1 3 4 5 9 10 5 7 9 11 8 11 4 2 3 1 2 2 3 2 1 3 9 5 5 6 5 3 3 5 2 3 7 9 15 17 5 3 6 8 10 9 10 10 10 12 9 15 12 13 11 4 3 4 8 13 15 18 18 22 20 16 18 17 17 17 15 13 10 12 12 11 10
4 4 4 4 6 5 6 7 10 13 8 2 3 4 2 1 2 1 1 7 2 7 7 13 4 8 7 4 2 2 3 4 3 4 3 3 2 5 4 6 5 8 4 5 4 4 7 10 13 18 1 3 2 4 6 10 12 10 9 7 7 12 15 9 15 2 2 3 9 6 12 15 20 22 19 14 13 13 15 15 8 7 11 11 10 11 12 12
4 5 5 7 6 5 5 5 8 8 4 2 3 1 2 2 1 0 2 4 8 3 5 9 7 10 11 1 2 4 9 11 7 6 6 5 4 3 6 6 7 1 3 8 9 5 7 10 18 7 4 5 6 6 6 7 6 7 6 6 11 10 5 7 4 2 1 2 10 12 14 14 19 15 11 10 7 11 9 6 4 4 8 9 10 10 9 12
6 5 5 5 4 3 4 5 7 2 3 2 1 3 1 1 2 1 2 4 5 6 5 1 4 3 5 3 1 8 10 4 1 5 2 5 8 3 4 9 5 3 9 12 14 12 12 1 3 1 7 9 10 9 8 8 10 7 9 10 11 13 10 9 8 7 12 9 2 9 11 8 3 6 4 3 5 9 4 2 3 2 3 4 5 5 10 13
6 5 4 4 4 4 3 5 1 2 0 1 0 2 1 1 1 1 3 4 3 6 3 1 1 3 0 2 0 5 2 2 2 3 0 3 7 4 3 2 2 10 11 7 5 8 13 3 4 4 2 5 7 7 11 8 8 8 11 15 15 13 14 13 7 5 6 4 3 12 11 3 4 3 3 6 9 9 4 5 5 7 5 4 8 12 12 13
3 4 4 4 4 5 3 2 2 2 2 1 2 2 2 2 1 1 2 3 6 2 1 3 1 1 1 2 3 2 5 5 2 1 2 3 4 2 4 4 1 3 4 6 6 4 6 3 4 8 5 4 6 9 6 8 9 6 6 3 11 12 10 8 9 4 4 4 3 4 6 10 9 10 3 5 10 10 2 4 5 7 8 7 9 10 12 13
2 5 6 5 6 6 1 1 2 2 3 2 3 3 2 3 2 2 3 3 4 2 1 3 1 1 1 2 1 3 4 2 1 2 1 2 2 1 5 4 3 2 1 3 1 6 4 1 4 2 7 7 6 8 9 11 6 7 3 3 3 3 4 4 3 4 7 1 6 5 6 9 9 6 6 10 11 6 1 4 7 9 7 8 12 14 15 15
6 1 4 5 8 7 1 3 2 2 1 3 4 4 3 4 4 2 1 5 3 2 1 2 2 1 1 1 1 1 3 2 2 2 2 2 3 2 4 4 7 6 5 4 8 2 3 4 5 5 6 5 10 8 6 11 8 1 1 2 2 1 1 3 3 4 3 6 5 5 2 4 6 5 5 2 3 7 6 8 10 10 11 13 14 16 17 17
7 7 2 6 7 4 3 2 2 3 2 3 4 4 2 3 2 2 2 5 1 1 2 1 1 1 2 1 3 2 0 2 2 1 2 1 3 2 5 3 3 1 1 4 9 1 1 1 5 6 6 8 4 3 5 10 9 2 4 5 4 3 3 2 2 4 4 3 8 8 8 5 13 6 6 2 4 5 3 8 9 10 14 15 15 16 16 14
7 6 5 4 7 3 1 3 4 2 5 5 4 5 4 2 2 2 3 6 3 2 3 1 2 2 1 3 1 3 3 2 1 1 2 1 2 1 4 2 1 3 5 2 5 4 3 1 1 3 8 3 5 4 3 2 3 4 3 1 1 1 0 1 1 2 3 7 8 11 12 7 10 2 6 7 2 1 6 6 7 12 14 16 15 15 13 13
7 5 4 7 4 3 4 2 2 5 6 5 5 4 1 1 2 2 8 2 2 2 2 1 2 1 4 3 2 3 0 2 2 0 3 1 2 2 0 1 1 1 0 2 5 6 3 2 2 3 3 3 3 5 4 1 1 1 0 1 4 4 2 2 0 1 3 10 1 5 10 11 6 4 2 3 3 2 6 6 8 13 14 13 13 11 12 12
5 5 0 6 1 1 4 2 4 5 5 6 4 1 1 3 2 8 4 3 4 3 2 2 1 1 3 2 1 2 2 2 2 2 2 2 2 5 6 6 3 2 3 3 3 4 2 8 2 3 1 4 4 3 2 2 2 3 1 2 4 4 2 4 3 3 5 9 2 2 5 3 16 9 1 5 2 6 5 8 10 13 12 12 11 11 10 10
5 6 5 1 2 3 1 3 6 5 6 3 1 0 2 2 8 6 3 3 3 1 2 3 1 2 2 2 2 1 0 2 3 2 2 2 2 6 2 4 2 2 8 3 3 3 3 3 2 6 2 7 8 8 3 3 8 7 5 4 3 5 5 7 5 1 5 3 2 0 5 10 12 10 11 14 3 11 10 12 13 13 11 10 9 8 9 10
6 5 2 3 6 4 4 7 6 7 6 1 1 3 2 5 6 4 5 7 3 2 3 2 1 3 1 4 1 3 4 3 3 2 2 1 1 3 4 6 5 4 3 1 5 2 8 7 6 9 5 10 13 14 10 2 9 10 5 7 6 8 5 9 5 11 9 7 2 3 2 4 2 2 8 15 10 13 12 12 11 10 9 8 7 9 10 11
8 6 3 1 4 4 7 6 8 7 4 4 2 6 7 11 1 4 4 3 3 2 2 1 1 2 2 2 0 3 5 2 2 3 3 4 4 2 2 3 4 4 2 4 4 1 11 11 1 4 3 7 11 8 5 5 1 3 0 2 2 7 5 13 8 8 7 8 2 3 6 1 7 5 6 14 12 12 10 11 10 10 8 6 8 10 10 10
4 2 3 3 4 5 7 6 8 6 5 5 5 6 15 6 3 4 3 1 2 3 1 1 3 3 4 2 1 1 1 4 2 3 2 4 1 3 2 2 6 14 8 7 2 6 3 6 3 1 2 7 3 3 3 1 7 4 5 6 6 4 5 8 4 2 0 2 12 4 6 8 7 11 11 12 14 8 8 9 8 8 8 10 11 10 10 9
3 0 3 4 4 7 8 8 7 5 4 7 7 12 8 3 8 1 2 4 1 2 2 6 3 5 1 2 3 1 2 1 2 2 5 3 5 10 3 4 3 7 8 2 3 1 6 10 2 5 7 2 5 4 3 3 1 7 4 4 4 1 3 2 6 0 6 13 10 7 14 15 10 11 12 9 12 6 7 7 8 8 9 10 9 9 9 9
3 2 2 4 5 9 9 9 9 5 5 8 14 13 3 6 2 10 3 4 2 1 1 3 5 4 3 2 4 4 3 4 2 3 2 4 6 7 2 1 3 1 0 3 3 2 6 7 3 2 2 1 1 2 5 3 4 4 2 7 3 3 6 5 0 4 8 11 8 12 18 18 16 18 10 8 10 5 5 5 6 7 8 8 7 7 7 6
2 2 3 4 5 10 8 10 9 9 5 9 12 11 7 7 3 3 3 2 2 0 5 9 7 2 5 6 3 2 4 5 3 2 2 5 7 3 1 2 2 2 3 3 0 1 3 4 7 3 4 2 2 4 7 5 3 2 0 2 2 2 7 6 3 3 4 12 10 12 14 14 11 15 17 7 12 6 7 5 6 7 6 5 4 4 4 5
5 3 4 2 2 8 10 10 7 8 7 16 12 10 2 0 4 1 0 4 4 5 6 6 7 9 4 5 3 6 2 4 4 4 7 2 9 3 3 3 2 3 1 2 3 2 1 1 10 1 3 1 4 7 9 7 4 6 6 6 3 3 2 4 4 5 8 11 13 13 15 10 7 5 5 8 7 6 5 6 5 5 5 4 4 3 4 5
1 1 1 2 5 8 10 6 6 10 12 6 7 7 1 6 2 1 1 1 1 3 1 1 1 6 0 2 4 3 1 2 3 8 6 4 6 9 3 1 2 4 3 3 4 3 1 3 8 6 10 11 12 4 5 8 9 7 7 8 8 6 7 10 13 9 8 12 11 12 16 10 1 3 8 8 6 7 5 6 6 5 4 4 4 5 6 6
5 4 2 4 8 12 9 9 5 3 3 11 11 6 5 1 4 5 2 2 0 3 2 2 4 3 4 7 7 1 2 3 5 7 2 10 3 5 1 5 3 3 2 3 3 3 3 1 5 12 12 14 15 14 2 3 2 4 5 9 8 10 8 11 16 11 10 10 6 12 14 9 4 1 6 6 6 6 5 6 6 4 4 5 5 6 6 6
4 2 3 1 5 11 9 10 6 6 7 3 5 2 1 2 3 0 3 1 1 3 1 4 6 7 6 8 6 6 6 6 5 7 5 5 10 7 3 4 2 2 2 3 1 1 4 2 3 11 11 11 13 11 3 4 3 1 4 3 1 8 9 12 11 6 8 8 10 9 14 1 2 2 3 7 7 3 4 5 5 5 4 4 5 6 6 7
3 3 3 2 2 5 12 13 12 9 6 5 6 11 5 2 1 1 3 3 5 2 4 3 2 6 6 0 2 6 3 4 4 7 5 1 4 2 4 2 3 2 2 3 2 2 2 4 4 7 8 6 8 5 5 3 2 2 3 3 4 6 7 6 9 1 8 8 14 14 15 6 2 3 3 5 6 6 5 4 3 5 4 3 3 2 2 4
4 2 1 2 2 3 12 6 8 10 11 14 10 13 13 9 5 9 10 7 3 5 1 3 7 2 4 1 2 0 2 9 5 3 4 3 5 1 3 4 4 2 3 1 5 2 2 3 2 6 8 9 9 10 8 4 0 2 1 4 5 4 7 5 8 6 11 2 14 12 11 3 5 3 6 6 6 6 5 5 4 3 3 3 3 1 0 2
3 5 1 1 2 2 3 1 1 8 10 10 11 12 12 12 6 1 6 6 9 4 7 6 2 1 6 2 4 7 8 5 8 3 1 3 1 2 1 3 2 1 2 7 4 2 1 3 5 8 10 11 13 11 1 2 3 8 5 5 9 8 9 7 7 11 13 10 11 9 12 13 7 8 10 9 9 8 7 6 6 6 5 4 3 1 0 1
1 4 5 6 2 4 3 1 2 5 6 9 6 4 12 15 10 4 7 5 4 10 5 8 5 5 5 7 10 12 13 12 9 11 11 13 5 3 1 3 1 2 3 3 4 3 1 8 11 15 15 16 18 18 18 14 17 17 16 15 13 13 13 15 12 14 8 12 13 8 17 14 12 11 4 9 7 6 6 6 6 6 6 4 3 3 3 1
2 1 3 2 2 5 7 7 6 3 2 11 8 4 7 7 6 7 2 1 3 1 7 1 5 12 11 9 5 5 5 8 7 8 6 4 5 1 5 1 3 1 1 2 3 4 5 11 13 15 17 16 18 20 19 18 16 18 18 18 20 20 18 20 20 20 16 14 17 12 16 16 16 18 12 5 7 7 7 5 3 2 3 4 3 2 2 4
1 1 2 3 3 2 1 3 2 7 6 8 5 10 14 14 13 7 2 0 2 2 5 7 7 6 10 10 7 7 7 7 6 6 3 3 3 3 3 5 3 2 2 3 4 3 3 11 12 14 15 14 17 17 16 16 14 15 15 17 17 18 21 21 22 18 19 20 18 17 18 23 19 20 4 5 5 4 3 3 2 4 4 4 4 4 3 5
3 2 2 3 5 4 2 2 1 4 10 7 5 11 11 12 15 9 2 4 6 5 2 7 9 4 1 1 2 5 6 8 6 11 1 2 4 3 3 2 4 1 0 5 2 4 8 8 7 2 5 7 7 9 7 9 11 12 12 14 15 16 18 17 17 18 17 13 16 19 19 20 10 2 6 6 5 2 2 3 2 2 3 5 5 5 4 4
1 2 1 5 3 3 4 3 4 6 8 9 13 11 6 10 14 7 6 4 7 8 1 6 4 2 1 2 4 9 0 2 2 2 2 0 7 1 2 1 6 4 7 3 2 5 5 5 6 6 10 10 10 12 12 15 16 17 16 17 20 21 20 15 16 11 11 15 19 20 18 17 1 3 5 5 4 4 3 3 3 2 2 4 5 5 5 5
1 1 0 1 2 5 4 4 4 6 9 8 9 6 4 6 1 5 7 2 6 5 4 4 1 1 3 4 9 6 2 3 4 3 3 2 3 2 3 3 2 3 1 1 3 3 3 3 4 4 10 8 9 9 9 6 7 12 18 19 20 20 19 20 18 17 20 21 18 16 15 2 4 4 5 4 5 3 4 5 4 4 4 4 6 7 7 7
Wind_Direction
30 27 24 20 18 15 11 10 7 5 4 1 359 359 0 360 356 355 353 350 349 348 342 338 341 338 341 342 342 341 333 302 196 213 224 245 95 136 167 126 145 141 153 128 131 142 130 154 160 145 168 208 30 212 54 203 354 202 219 240 241 252 219 200 231 207 26 286 292 197 185 253 284 176 175 231 231 238 261 253 237 241 246 239 257 66 87 145
28 25 23 19 16 12 7 3 3 357 356 355 353 352 354 354 353 349 350 346 346 344 343 340 336 340 338 341 341 345 322 265 251 207 243 117 140 168 157 150 137 152 156 150 160 168 151 170 161 181 170 196 54 192 260 170 230 219 202 225 267 212 245 188 225 241 232 274 290 287 158 240 274 333 300 290 280 260 270 261 235 236 245 245 246 243 216 185
21 19 19 17 15 8 5 2 357 353 352 350 350 348 347 348 347 346 344 343 341 342 341 338 339 336 341 341 340 356 320 264 252 253 283 101 154 167 156 145 152 165 172 169 175 178 197 187 162 171 186 218 116 183 228 158 200 216 236 247 244 229 221 228 226 239 229 280 282 285 275 211 249 274 127 250 282 281 264 274 263 237 255 242 239 239 232 208
18 14 14 14 7 0 357 1 355 351 350 351 345 344 342 341 342 342 340 339 339 338 339 338 337 338 338 339 346 332 278 278 280 31 141 208 161 162 155 152 150 170 100 98 150 137 87 112 143 208 152 230 115 266 215 176 225 135 215 238 262 225 237 231 223 239 255 259 272 275 279 275 254 230 198 254 289 274 260 251 255 275 289 292 265 243 217 224
15 13 12 9 6 0 356 360 353 351 350 347 344 339 339 338 337 336 337 333 337 335 335 336 339 333 335 338 352 316 324 283 48 277 112 156 154 159 147 151 150 162 156 122 111 113 151 150 149 101 207 216 161 191 242 163 276 143 232 249 257 115 250 251 223 228 246 16 257 261 278 283 63 231 220 233 244 272 282 320 250 273 282 285 285 277 221 240
11 9 8 3 1 2 357 353 354 348 349 344 339 339 337 336 336 332 332 330 327 332 331 333 334 336 328 350 308 198 307 325 133 20 143 180 162 151 153 132 139 138 132 146 145 151 143 154 170 179 202 223 198 218 142 194 159 246 230 240 250 240 259 258 242 170 185 213 231 266 274 324 253 273 239 224 228 257 271 282 283 281 276 277 290 272 257 245
12 7 5 0 359 359 355 352 349 348 347 341 338 340 335 333 330 330 325 327 323 326 329 328 331 328 334 301 212 297 241 275 192 39 118 137 147 144 128 122 137 145 157 128 148 158 189 154 207 209 200 237 241 233 182 185 202 245 267 154 250 237 240 249 255 121 211 234 255 267 302 274 269 277 219 228 225 249 271 275 276 277 278 275 273 270 265 260
25 3 2 358 355 0 353 350 348 345 346 338 335 335 332 329 327 323 324 318 320 316 325 319 328 328 336 207 226 119 152 250 51 7 37 112 118 121 118 114 154 159 177 182 168 181 169 180 199 116 231 235 132 205 156 199 186 235 251 244 262 254 255 262 260 240 249 247 262 287 281 268 264 262 290 263 243 252 263 269 271 270 275 272 264 264 263 264
45 4 354 342 354 5 350 346 343 344 340 337 335 331 330 326 322 320 317 315 312 311 305 316 311 332 309 271 171 248 230 248 0 79 133 109 111 117 146 149 203 177 188 172 202 168 177 212 203 184 256 222 160 235 162 233 242 207 246 266 260 252 263 257 243 237 243 259 202 265 262 269 274 300 266 266 252 247 257 270 273 275 274 271 261 259 258 257
22 355 347 337 14 356 345 341 339 339 337 335 333 331 325 326 321 319 315 311 307 301 292 294 312 304 262 158 163 253 258 97 121 129 111 123 126 134 78 112 171 177 166 184 146 164 207 195 204 183 356 274 158 231 114 203 280 51 309 286 277 277 286 270 256 266 244 248 176 229 265 271 141 310 281 124 197 224 247 265 275 269 269 272 268 262 256 254
11 353 344 344 355 347 343 337 335 333 333 332 331 328 328 323 321 317 314 309 303 291 284 269 75 222 219 184 232 259 116 141 118 118 131 134 139 158 168 166 176 180 191 136 210 206 237 117 102 103 250 253 143 212 206 229 349 336 333 296 276 274 260 244 241 251 241 262 195 230 260 270 263 194 258 264 180 157 283 281 281 278 272 272 273 274 270 257
9 342 348 356 349 346 341 336 332 331 330 329 328 329 327 324 321 317 315 312 302 287 257 256 228 244 250 196 234 243 66 85 131 124 123 143 110 39 49 188 192 189 184 185 216 229 321 139 159 182 267 109 238 68 215 309 288 335 318 292 290 292 286 270 247 261 184 233 164 207 260 273 224 235 251 256 270 243 275 278 281 279 275 273 271 272 269 267
280 342 351 347 342 341 339 334 331 329 329 328 327 327 326 324 321 320 317 316 313 321 101 130 125 258 262 268 239 65 52 113 118 114 97 90 106 83 66 65 68 34 328 281 212 174 158 168 180 208 120 225 291 283 112 218 154 274 217 284 297 288 278 289 213 72 169 184 161 159 278 280 277 237 243 266 289 312 289 277 271 274 280 277 270 266 268 269
37 330 356 343 337 338 334 332 330 327 327 326 326 326 325 324 324 322 330 317 328 203 182 147 158 195 224 259 83 19 109 125 126 126 131 172 140 81 98 72 81 67 354 72 71 95 133 255 243 71 70 236 252 122 181 33 181 273 45 185 270 294 273 116 130 124 224 140 170 209 264 275 281 283 293 359 32 322 296 288 282 274 278 282 278 271 272 271
199 260 35 341 336 334 331 329 330 328 325 325 325 325 321 321 327 341 359 22 149 151 115 123 211 212 207 271 93 19 160 118 172 146 158 171 136 123 108 119 72 63 71 74 110 116 141 132 129 213 222 82 117 265 270 292 259 253 280 249 192 230 273 282 152 180 253 153 210 185 258 261 276 290 300 354 66 299 294 293 289 284 281 283 283 279 274 274
235 195 142 299 306 336 328 327 328 325 323 322 323 321 314 317 340 8 23 53 135 136 140 185 167 283 322 276 117 124 196 206 163 20 5 309 193 155 125 114 120 94 161 58 100 124 70 164 193 307 334 169 215 229 272 293 256 190 229 268 270 246 274 302 272 205 228 124 215 205 266 299 282 297 304 195 225 259 275 282 285 290 290 287 286 285 283 287
233 213 232 260 283 341 332 326 325 324 321 320 322 321 319 218 19 29 39 51 75 116 231 96 136 212 254 89 118 241 168 85 240 135 116 18 2 132 127 117 113 99 95 113 117 134 50 175 37 206 201 261 303 166 274 257 266 249 196 263 248 273 295 278 297 259 142 191 222 218 251 252 276 288 290 292 286 282 282 279 283 291 286 285 285 284 290 299
225 227 241 242 295 334 336 327 325 323 322 318 324 317 312 152 10 266 111 83 59 145 131 213 233 287 238 111 251 144 19 144 109 109 35 352 207 142 120 126 111 127 129 113 54 182 316 166 312 234 209 198 185 215 215 252 259 286 282 273 271 231 228 271 290 211 297 173 269 254 240 261 266 274 278 283 284 276 264 274 289 286 282 280 283 294 301 296
235 242 248 223 282 301 312 307 324 328 325 318 317 301 72 95 17 224 -0 93 214 167 194 168 189 199 274 154 49 98 113 49 128 218 135 129 67 81 77 75 141 142 153 188 140 172 147 109 211 219 240 209 203 209 221 240 263 280 290 283 289 286 288 274 266 278 307 299 295 279 275 286 287 282 282 283 276 276 278 289 282 273 274 277 297 298 294 298
238 244 239 230 257 284 298 319 330 329 330 327 1 337 201 250 214 161 150 223 232 276 332 237 237 335 323 241 182 52 310 215 186 24 125 301 149 134 73 143 83 5 151 207 136 180 136 192 187 223 237 234 209 212 232 265 18 311 268 264 271 281 279 272 273 283 61 309 266 282 293 296 287 277 281 276 280 286 289 276 269 273 278 320 304 290 294 298
234 233 241 240 258 269 299 318 331 328 332 309 286 296 19 44 336 324 337 271 260 274 267 257 219 242 256 76 143 170 205 163 28 139 153 91 297 157 151 158 168 188 190 33 121 84 212 215 221 235 250 269 250 242 250 268 257 254 269 270 275 266 271 271 292 307 42 295 265 270 293 300 295 284 269 272 286 287 277 272 260 272 299 303 301 307 308 308
203 235 240 248 252 260 300 322 335 331 325 266 353 54 155 314 338 334 294 294 278 237 238 249 47 263 276 279 97 287 48 298 178 111 119 221 128 226 153 201 170 217 113 132 112 157 203 217 227 236 183 76 177 224 225 239 253 247 246 269 282 263 262 273 270 352 86 288 291 304 301 290 282 273 282 288 271 265 264 256 305 325 297 299 308 318 324 333
186 216 230 238 242 252 281 316 334 340 329 333 47 107 82 76 80 317 319 267 267 242 233 246 233 237 262 100 178 115 241 226 248 152 172 193 104 266 143 175 203 123 139 190 213 186 238 230 239 239 113 224 235 218 229 239 236 250 240 234 246 264 314 291 195 108 160 283 297 312 294 278 262 265 271 277 256 253 263 356 288 269 290 299 318 325 328 345
207 204 233 256 262 250 280 323 315 276 46 4 27 39 45 70 120 175 223 261 314 284 245 244 258 260 255 288 122 201 209 248 192 204 87 193 176 134 177 197 177 174 214 200 222 229 234 337 44 158 215 216 238 234 228 241 255 218 225 248 258 261 257 245 293 338 311 289 187 276 267 268 270 151 182 202 227 255 10 258 282 239 263 303 294 357 25 17
211 201 234 254 250 218 247 310 320 51 144 239 245 92 109 91 310 335 298 269 186 255 92 134 146 242 219 82 322 199 158 179 216 39 332 244 144 156 200 44 198 226 229 192 234 263 263 247 121 93 141 208 228 249 232 227 258 256 218 224 244 265 279 277 288 355 300 270 59 352 330 204 192 151 73 310 274 268 138 335 355 25 11 357 39 38 29 31
204 200 189 222 201 198 193 268 97 124 296 312 69 124 131 120 76 55 279 306 290 171 8 201 217 119 338 117 15 315 130 219 31 8 329 348 341 250 112 188 192 270 157 150 224 248 267 46 188 209 163 180 214 239 246 177 245 259 279 207 242 254 270 279 290 312 270 291 54 4 313 299 187 225 181 232 250 270 337 327 49 62 24 34 48 39 39 33
169 186 183 191 185 176 192 245 117 184 296 116 126 150 147 129 137 186 276 228 280 108 149 13 249 87 239 31 20 150 199 123 39 107 223 319 219 250 230 180 122 85 134 146 40 230 159 116 108 171 194 200 225 247 218 188 218 246 94 171 106 191 217 243 244 224 273 316 251 209 212 283 294 178 199 215 233 253 345 9 38 69 65 53 47 43 40 34
64 87 187 186 183 189 133 124 144 231 286 106 133 133 151 135 142 177 226 314 292 73 60 178 31 296 306 45 307 295 12 334 181 91 337 327 285 113 264 207 206 185 168 170 248 57 183 147 170 154 193 194 224 230 101 187 197 341 20 320 36 340 240 189 214 270 283 325 302 177 183 273 266 161 204 289 278 256 162 86 44 44 63 58 49 42 40 35
66 60 76 190 174 173 65 120 154 237 109 150 132 133 112 152 208 298 35 264 110 148 34 60 20 182 58 310 83 53 253 60 337 49 305 251 1 302 216 230 192 116 58 239 255 129 332 166 213 183 164 221 195 39 169 175 222 129 123 98 84 84 71 228 270 294 282 302 273 157 189 270 289 150 208 113 258 168 29 41 64 71 58 48 42 39 35 31
39 51 46 148 113 130 160 81 228 118 129 130 140 123 111 216 216 211 195 238 42 277 133 106 205 336 48 130 216 40 235 59 35 339 37 216 60 89 49 343 175 136 208 192 256 281 71 190 335 203 223 287 80 47 359 356 39 115 170 337 118 69 245 177 57 295 295 248 264 159 186 217 287 148 181 177 225 210 90 14 59 71 57 46 44 39 32 24
13 14 67 160 150 184 138 217 174 133 127 128 129 139 208 240 246 197 231 209 351 205 84 191 171 162 150 197 193 85 247 1 94 157 128 170 132 13 33 187 91 146 170 255 254 247 191 120 238 229 33 80 92 87 43 33 122 257 332 333 309 225 169 173 33 163 259 269 85 144 183 191 240 204 287 80 76 26 15 20 15 63 52 51 42 37 33 27
357 324 17 155 208 217 180 244 135 143 132 142 161 174 221 271 157 215 223 103 270 140 212 170 54 145 114 83 238 143 170 140 186 195 199 158 190 200 199 237 156 261 242 192 256 76 242 218 191 345 201 200 167 229 127 115 204 215 189 272 273 279 341 258 143 257 205 260 113 63 128 245 235 243 239 348 56 71 39 32 52 71 62 57 46 39 36 27
337 317 283 181 134 207 344 100 125 132 126 171 146 292 224 197 255 186 233 182 264 29 174 34 99 147 126 119 210 104 48 234 115 165 108 104 239 245 243 257 74 261 281 63 297 289 266 74 144 217 302 207 188 209 167 234 187 188 200 201 227 277 259 270 281 279 290 279 97 300 187 246 275 279 238 254 13 76 77 70 72 78 76 64 55 39 34 34
320 318 258 194 183 180 125 139 135 144 130 177 149 81 153 233 232 31 216 211 247 51 56 78 138 101 177 239 92 175 222 153 165 137 223 171 174 263 206 194 174 215 221 271 261 254 283 268 203 148 216 157 193 210 217 282 158 195 201 183 227 248 262 277 251 260 254 283 114 192 125 226 329 359 62 81 70 63 69 80 78 79 77 75 65 55 43 33
309 285 202 192 202 187 135 149 149 172 130 128 152 206 226 237 191 204 220 248 283 344 72 335 144 77 213 229 82 240 249 260 113 137 176 191 221 207 224 188 196 190 98 261 210 111 225 254 39 168 12 157 188 217 73 107 119 150 132 333 287 237 213 246 255 262 283 287 228 158 222 198 232 68 125 101 88 68 65 69 71 67 66 66 55 44 40 31
305 249 192 185 199 172 150 155 159 168 161 161 193 224 226 197 218 141 248 40 14 272 15 199 107 262 247 227 56 91 141 243 113 193 204 208 301 249 157 221 176 186 170 206 160 265 186 254 90 280 76 213 198 61 209 169 244 136 149 206 229 21 226 263 275 210 77 253 254 247 246 237 265 264 245 108 84 74 69 63 60 61 57 57 51 40 32 34
221 242 187 188 204 158 155 156 152 153 163 196 203 237 227 262 222 193 243 184 266 122 92 259 218 204 190 245 166 148 140 112 224 195 253 138 267 204 220 246 170 198 220 348 295 151 288 286 161 157 242 152 29 352 9 339 18 109 213 234 56 323 5 249 270 246 236 251 255 219 259 274 277 293 105 102 103 79 65 60 62 58 57 56 50 43 31 20
179 209 314 222 185 152 156 154 144 133 156 207 224 230 110 223 207 217 110 121 241 98 353 188 269 117 263 186 238 143 172 222 153 130 258 152 271 111 143 293 98 46 244 74 263 2 6 302 328 82 289 30 88 200 263 153 325 273 297 354 270 226 228 192 176 237 240 242 251 228 250 257 260 264 264 204 118 124 93 86 74 61 56 57 54 47 37 26
141 166 233 196 151 153 151 152 149 151 160 212 223 242 227 226 83 181 209 120 22 106 250 243 250 253 247 241 236 27 169 226 114 204 264 213 229 148 151 185 103 128 60 110 79 344 118 261 279 287 74 82 163 181 246 164 177 136 63 258 64 315 276 255 230 325 283 268 265 252 236 255 230 253 261 285 120 137 128 107 81 77 66 60 46 36 28 23
149 120 244 90 200 139 144 150 150 153 193 217 217 218 101 72 228 31 235 190 240 197 234 243 217 251 213 255 125 246 244 215 194 230 223 218 253 204 223 179 184 105 69 217 159 205 254 166 270 150 157 207 248 186 234 250 199 199 218 233 192 223 69 344 316 249 246 259 255 273 263 253 256 17 51 104 116 121 122 114 106 87 82 77 58 29 23 24
269 176 213 118 156 143 137 137 163 196 208 241 253 236 162 243 69 326 229 322 230 17 318 191 176 226 349 25 242 111 304 207 205 245 216 265 218 266 20 37 175 120 116 82 160 201 273 207 255 278 280 257 261 241 247 263 274 268 234 233 228 241 266 265 262 199 231 242 258 260 259 257 119 22 95 107 111 112 102 103 102 90 72 61 40 31 23 21
163 178 163 145 167 153 148 174 215 177 202 214 222 195 231 201 247 228 168 49 150 243 61 185 262 247 240 254 252 213 208 229 218 238 206 242 207 240 183 353 25 119 148 250 282 176 288 318 253 267 257 261 269 269 234 201 199 260 243 258 240 262 261 255 266 250 252 242 242 250 274 247 77 14 95 109 116 112 119 120 109 108 79 54 41 28 21 18
196 108 36 207 207 168 164 205 195 191 212 241 51 289 102 309 200 320 117 130 193 227 170 213 215 233 245 246 242 245 205 256 205 233 208 221 245 247 330 324 104 46 74 308 298 326 85 238 258 256 266 266 269 275 241 152 160 268 232 226 194 237 220 250 258 322 281 283 260 252 246 206 146 96 78 99 106 123 135 129 130 116 103 69 58 37 23 17
139 111 111 89 152 205 184 197 204 203 222 242 240 247 239 225 102 170 185 230 206 190 204 194 358 228 262 214 148 237 200 258 246 254 261 275 258 104 324 33 233 191 220 252 238 287 292 228 242 283 284 272 250 225 236 85 137 235 286 252 252 278 292 287 293 88 269 211 248 260 261 266 156 118 118 124 144 148 153 159 151 146 132 120 94 71 43 19
112 15 241 289 49 206 206 210 209 206 210 222 226 240 242 248 241 251 245 244 203 225 188 244 244 172 224 126 214 25 181 238 274 213 224 241 256 72 321 30 18 111 79 89 102 111 182 287 289 255 253 262 263 263 271 266 75 21 316 308 299 319 308 324 259 272 268 201 226 238 255 292 87 146 176 182 176 174 168 173 167 158 177 161 191 159 5 18
194 151 259 338 28 5 287 344 124 208 216 219 232 240 244 247 249 139 197 239 216 229 233 246 23 140 236 161 225 241 246 197 209 263 207 233 204 308 163 340 355 114 189 138 144 150 251 195 208 233 256 265 270 280 166 153 251 266 248 231 265 272 271 250 268 267 260 279 277 287 288 285 253 198 206 195 191 192 182 181 191 189 187 204 196 227 273 309
340 132 162 188 5 289 231 342 193 181 202 196 220 213 234 236 242 273 176 240 215 216 223 229 201 202 232 226 244 262 257 256 228 246 247 263 250 255 325 219 354 15 174 134 179 92 198 264 245 249 248 256 267 271 278 278 275 274 274 269 270 267 267 274 261 254 275 296 266 226 262 267 270 272 189 171 184 192 182 185 196 195 195 195 209 218 242 337
170 241 100 297 201 198 203 242 211 207 194 179 225 233 248 226 189 215 88 223 59 218 202 314 195 225 235 219 204 235 221 233 219 238 256 248 270 316 276 163 238 36 107 180 178 199 245 258 258 258 258 262 265 270 272 273 270 274 274 276 274 272 270 263 260 267 273 257 270 285 285 280 276 276 281 176 176 184 170 184 182 197 203 214 238 257 326 348
61 20 79 328 177 332 244 45 137 206 217 191 222 232 245 241 239 222 186 87 114 291 209 239 238 227 234 244 236 244 243 272 259 242 245 273 271 343 283 294 209 40 196 190 181 200 214 247 253 247 261 260 264 266 270 274 279 275 269 267 268 269 266 267 274 279 272 272 282 290 284 279 284 282 230 151 147 150 164 166 197 204 222 223 242 266 293 330
179 157 172 58 59 88 66 73 96 200 226 201 219 227 235 240 245 229 157 227 260 250 54 247 252 78 330 47 244 244 247 261 281 272 271 92 282 194 287 261 328 34 12 247 216 213 214 252 221 226 261 248 236 249 253 257 268 264 261 260 258 254 259 261 272 267 273 274 266 265 267 268 268 100 124 141 149 137 200 221 223 229 205 222 235 254 281 311
43 21 31 135 149 152 113 136 157 189 209 221 226 233 227 230 246 231 249 30 246 255 206 247 79 139 206 218 223 251 185 169 121 296 86 229 269 16 146 238 91 318 333 315 304 315 278 286 348 294 285 275 270 277 278 279 273 268 267 258 256 258 262 257 255 264 273 274 273 275 270 268 170 110 115 151 173 194 243 256 263 272 246 246 248 256 270 287
78 304 307 324 101 157 138 137 135 143 219 217 210 216 217 249 15 132 240 141 54 66 91 107 29 74 246 225 248 248 147 124 130 155 162 171 232 229 250 263 295 235 269 279 315 292 281 296 277 268 260 248 254 268 286 289 281 262 243 242 250 254 253 259 257 255 251 263 266 261 265 327 125 143 150 182 180 242 248 261 258 271 262 257 264 262 269 279